Simultaneous Nadir Overpasses (SNOs) Predictions

Prediction of SNOs near equator between AQUA and NPP Satellite Orbit:

Table of predicted SNOs near equator for the next 14.0 days since TLE Epoch: 10/11/2014
Index Date (AQUA) Time (AQUA) AQUA Lat,Lon Date (NPP) Time (NPP) NPP Lat,Lon Distance(km) Time Diff (sec)
1 10/12/2014 12:25:22 -29.99,-167.20 10/12/2014 12:18:31 -30.16,-166.33 85.40 411
2 10/12/2014 13:14:52 29.96, 0.43 10/12/2014 13:09:19 30.10, 0.98 54.84 333
3 10/12/2014 14:04:15 -29.98, 168.08 10/12/2014 13:59:59 -30.04, 168.33 24.26 256
4 10/12/2014 14:52:15 24.54, -22.92 10/12/2014 14:49:14 24.54, -22.92 0.99 181
5 10/12/2014 15:34:21 1.79, 150.57 10/12/2014 15:32:26 1.79, 150.57 0.33 115
6 10/12/2014 16:16:54 -26.99, -36.14 10/12/2014 16:16:06 -26.99, -36.15 1.37 48
7 10/12/2014 17:05:28 29.92, 132.27 10/12/2014 17:05:56 29.96, 131.98 27.78 28
8 10/12/2014 17:54:58 -29.94, -60.11 10/12/2014 17:56:43 -30.08, -60.69 58.44 105
9 10/12/2014 18:44:21 29.92, 107.55 10/12/2014 18:47:23 30.14, 106.66 88.97 182
10 10/15/2014 04:41:53 -30.00, -51.33 10/15/2014 04:35:30 -30.13, -50.57 74.84 383
11 10/15/2014 05:31:23 29.98, 116.30 10/15/2014 05:26:18 30.07, 116.75 44.18 305
12 10/15/2014 06:20:46 -29.99, -76.05 10/15/2014 06:16:58 -30.01, -75.91 13.64 228
13 10/15/2014 07:06:34 16.60, 94.80 10/15/2014 07:03:58 16.60, 94.80 0.19 156
14 10/15/2014 07:48:06 11.81, -91.41 10/15/2014 07:46:35 11.81, -91.40 0.79 91
15 10/15/2014 08:32:56 -28.72, 80.17 10/15/2014 08:32:35 -28.76, 80.08 10.10 21
16 10/15/2014 09:21:59 29.90,-111.87 10/15/2014 09:22:55 29.99,-112.25 38.40 56
17 10/15/2014 10:11:29 -29.92, 55.76 10/15/2014 10:13:43 -30.05, 55.06 69.09 134
18 10/15/2014 11:00:52 29.91,-136.58 10/15/2014 11:04:23 30.10,-137.59 99.59 211
19 10/17/2014 20:09:00 29.97,-103.10 10/17/2014 20:01:49 30.17,-102.15 94.53 431
20 10/17/2014 20:58:23 -29.99, 64.55 10/17/2014 20:52:29 -30.11, 65.20 64.01 354
21 10/17/2014 21:47:53 29.97,-127.82 10/17/2014 21:43:17 30.05,-127.49 33.43 276
22 10/17/2014 22:37:16 -29.98, 39.83 10/17/2014 22:33:57 -29.99, 39.86 2.82 199
23 10/17/2014 23:20:34 7.53,-147.33 10/17/2014 23:18:23 7.53,-147.34 0.95 131
24 10/18/2014 00:02:06 20.87, 26.51 10/18/2014 00:01:00 20.87, 26.51 0.40 66
25 10/18/2014 00:49:06 -29.92,-163.64 10/18/2014 00:49:14 -29.95,-163.83 18.72 8
26 10/18/2014 01:38:29 29.91, 4.01 10/18/2014 01:39:54 30.01, 3.51 49.22 85
27 10/18/2014 02:27:59 -29.93, 171.64 10/18/2014 02:30:41 -30.13, 170.84 79.91 162
28 10/20/2014 12:25:29 29.94, 12.78 10/20/2014 12:18:47 30.10, 13.63 83.63 402
29 10/20/2014 13:14:52 -29.96,-179.56 10/20/2014 13:09:28 -30.09,-179.03 53.10 324
30 10/20/2014 14:04:23 30.00, -11.95 10/20/2014 14:00:16 30.04, -11.72 22.31 247
31 10/20/2014 14:52:13 -24.43, 157.11 10/20/2014 14:49:21 -24.43, 157.10 1.00 172
32 10/20/2014 15:34:14 -2.71, -29.27 10/20/2014 15:32:28 -2.71, -29.28 0.91 106
33 10/20/2014 16:16:53 26.98, 143.86 10/20/2014 16:16:14 26.98, 143.83 3.39 39
34 10/20/2014 17:05:35 -29.89, -47.77 10/20/2014 17:06:12 -29.97, -48.07 29.77 37
35 10/20/2014 17:54:57 29.94, 119.90 10/20/2014 17:56:51 30.08, 119.29 60.22 114
36 10/20/2014 18:44:28 -29.90, -72.49 10/20/2014 18:47:40 -30.08, -73.41 90.97 192
37 10/23/2014 04:41:57 29.95, 128.66 10/23/2014 04:35:45 30.10, 129.40 72.37 372
38 10/23/2014 05:31:20 -29.96, -63.68 10/23/2014 05:26:25 -30.02, -63.26 41.88 295
39 10/23/2014 06:20:50 29.95, 103.94 10/23/2014 06:17:13 29.98, 104.05 11.18 217
40 10/23/2014 07:06:09 -15.28, -84.89 10/23/2014 07:03:43 -15.29, -84.90 1.33 146
41 10/23/2014 07:47:35 -14.00, 89.05 10/23/20
